Location: Multiple Mirror Telescope
(31.6889°N, 110.8853°W)
Time: 12:43:05
(UTC-07:00)

Hubble Space Telescope - Pass Details

Date: 05 December 2023
Orbit: 516 x 519 km, 28.5° (Epoch: 27 February)

Event Time Altitude Azimuth Distance (km) Brightness Sun altitude
Rises 18:06:51 0° 264° (W) 2,615 6.1 -10.1°
Reaches altitude 10° 18:09:44 10° 242° (WSW) 1,728 4.9 -10.7°
Maximum altitude 18:12:15 16° 203° (SSW) 1,383 3.4 -11.2°
Drops below altitude 10° 18:14:46 10° 163° (SSE) 1,728 3.4 -11.7°
Sets 18:17:40 0° 142° (SE) 2,615 4.1 -12.2°
